Location: Saint André
(43.5594°N, 1.3519°W)
Time: 02:17:54
(UTC+00:00)

USA 234 - Pass Details

Date: 22 March 2025
Orbit: 1102 x 1106 km, 123.0° (Epoch: 4 January)

Event Time Altitude Azimuth Distance (km) Brightness Sun altitude
Exits shadow 20:59:25 33° 192° (SSW) 1,767 4.1 -28.1°
Maximum altitude 21:01:25 41° 230° (SW) 1,561 4.1 -28.4°
Drops below altitude 10° 21:07:32 10° 299° (WNW) 2,970 6.5 -29.3°
Sets 21:10:12 0° 307° (NW) 3,931 7.4 -29.7°
